EW9596 Weather Reports


Display with metric or nautical units.
time (UTC)temp
F
wind
direction
speed
MPH
gust
MPH
rain 1hr
in
rain 24hr
in
rain mn
in
humidity
%
barometer
mb
20260502221519 48 324 0.0 4.0 0.00 0.07 0.01 53 1014.0
20260502221019 48 329 0.0 6.0 0.00 0.07 0.01 53 1014.0
20260502220519 48 64 1.0 6.0 0.00 0.07 0.01 53 1013.9
20260502220022 48 263 1.0 7.0 0.00 0.07 0.01 51 1013.9
20260502215522 48 257 2.0 7.0 0.00 0.07 0.01 51 1013.9
20260502215019 48 21 2.0 5.0 0.00 0.07 0.01 52 1013.8
20260502214519 48 360 1.0 6.0 0.00 0.07 0.01 51 1013.9
20260502214020 48 263 1.0 9.0 0.00 0.07 0.01 51 1013.9
20260502213518 48 297 2.0 9.0 0.00 0.07 0.01 50 1013.9
20260502213018 48 230 1.0 5.0 0.00 0.07 0.01 49 1013.8
20260502212520 48 240 3.0 6.0 0.00 0.07 0.01 49 1013.7
20260502212018 49 250 2.0 7.0 0.00 0.07 0.01 50 1013.7
20260502211517 49 268 3.0 8.0 0.00 0.07 0.01 49 1013.6
20260502211020 49 288 0.0 8.0 0.00 0.07 0.01 50 1013.7
20260502210516 49 267 3.0 9.0 0.00 0.07 0.01 50 1013.7
20260502210016 49 298 2.0 9.0 0.00 0.07 0.01 49 1013.7
20260502205520 49 279 4.0 9.0 0.00 0.07 0.01 48 1013.7
20260502205016 49 217 1.0 7.0 0.00 0.07 0.01 48 1013.7
20260502204516 49 223 4.0 8.0 0.00 0.07 0.01 47 1013.7
20260502204018 49 278 1.0 8.0 0.00 0.07 0.01 47 1013.7
20260502203518 49 280 3.0 9.0 0.00 0.07 0.01 47 1013.7
20260502203015 50 252 5.0 9.0 0.00 0.07 0.01 46 1013.7
20260502202515 50 246 3.0 9.0 0.00 0.07 0.01 44 1013.7
20260502202015 50 259 4.0 8.0 0.00 0.07 0.01 44 1013.7
20260502201515 50 243 2.0 10.0 0.00 0.07 0.01 43 1013.7
20260502201015 51 219 3.0 10.0 0.00 0.07 0.01 42 1013.7
20260502200518 51 250 4.0 8.0 0.00 0.07 0.01 42 1013.7
20260502200015 51 252 1.0 8.0 0.00 0.07 0.01 42 1013.8
20260502195515 51 225 4.0 9.0 0.00 0.07 0.01 42 1013.9
20260502195015 51 209 3.0 7.0 0.00 0.07 0.01 42 1013.9
20260502194514 51 290 4.0 7.0 0.00 0.07 0.01 43 1014.0
20260502194014 51 193 2.0 12.0 0.00 0.07 0.01 44 1014.1
20260502193514 51 242 3.0 9.0 0.00 0.07 0.01 44 1014.1
20260502193014 51 254 2.0 7.0 0.00 0.07 0.01 42 1014.2
20260502192513 51 236 3.0 7.0 0.00 0.07 0.01 43 1014.2
20260502192013 51 202 3.0 7.0 0.00 0.07 0.01 43 1014.3
20260502191512 51 237 2.0 7.0 0.00 0.07 0.01 42 1014.4
20260502191014 51 210 3.0 8.0 0.00 0.07 0.01 43 1014.4
20260502190513 51 306 2.0 8.0 0.00 0.07 0.01 43 1014.4
20260502190014 50 279 2.0 9.0 0.00 0.07 0.01 43 1014.4
20260502185513 50 281 0.0 8.0 0.00 0.07 0.01 45 1014.4
20260502185012 50 286 4.0 8.0 0.00 0.07 0.01 43 1014.4
20260502184525 50 42 1.0 8.0 0.00 0.07 0.01 42 1014.5
20260502184012 50 258 3.0 10.0 0.00 0.07 0.01 42 1014.6
20260502183512 50 290 3.0 10.0 0.00 0.07 0.01 43 1014.6
20260502183025 50 286 2.0 8.0 0.00 0.07 0.01 43 1014.6
20260502182611 50 331 2.0 8.0 0.00 0.07 0.01 42 1014.5
20260502182010 50 288 1.0 6.0 0.00 0.07 0.01 43 1014.6
20260502181514 50 236 2.0 10.0 0.00 0.07 0.01 42 1014.6
20260502181012 50 304 4.0 12.0 0.00 0.07 0.01 42 1014.6
20260502180510 50 325 3.0 10.0 0.00 0.07 0.01 42 1014.6
20260502170507 52 306 1.0 9.0 0.00 0.07 0.01 41 1014.4
20260502164008 53 284 3.0 9.0 0.00 0.07 0.01 40 1014.4
20260502163507 54 345 4.0 9.0 0.00 0.07 0.01 40 1014.4
20260502163010 54 287 3.0 8.0 0.00 0.07 0.01 41 1014.5
20260502162508 53 247 1.0 8.0 0.00 0.07 0.01 40 1014.6
20260502162005 53 245 2.0 7.0 0.00 0.07 0.01 42 1014.6
20260502161506 53 360 2.0 6.0 0.00 0.07 0.01 41 1014.6
20260502161003 53 5 1.0 8.0 0.00 0.07 0.01 41 1014.8
20260502160503 53 316 3.0 9.0 0.00 0.07 0.01 42 1014.7
20260502152102 51 22 2.0 10.0 0.00 0.07 0.01 46 1014.9
20260502151605 51 257 5.0 9.0 0.00 0.07 0.01 44 1014.9
20260502151054 50 198 5.0 10.0 0.00 0.07 0.01 47 1014.8
20260502150553 50 258 3.0 8.0 0.00 0.07 0.01 47 1014.8
20260502130538 46 234 4.0 8.0 0.00 0.07 0.01 70 1015.2
20260502123530 44 263 4.0 10.0 0.00 0.07 0.01 81 1015.2
20260502123034 43 265 3.0 11.0 0.00 0.07 0.01 83 1015.2
20260502122528 43 303 7.0 11.0 0.00 0.07 0.01 84 1015.1
20260502122027 42 252 2.0 7.0 0.00 0.07 0.01 86 1015.1
20260502121531 42 322 3.0 8.0 0.00 0.07 0.01 87 1015.1
20260502121026 42 293 4.0 9.0 0.00 0.07 0.01 87 1015.0
20260502120526 42 350 4.0 9.0 0.00 0.07 0.01 88 1015.1
20260502115525 41 273 0.0 8.0 0.00 0.07 0.01 88 1015.1
20260502115025 41 246 3.0 8.0 0.00 0.07 0.01 88 1015.2
20260502114524 41 273 0.0 4.0 0.00 0.07 0.01 88 1015.1
20260502114025 41 227 0.0 3.0 0.00 0.07 0.01 88 1015.2
20260502113524 41 221 0.0 0.0 0.00 0.07 0.01 88 1015.2
20260502113024 41 218 0.0 0.0 0.00 0.07 0.01 88 1015.3
20260502112523 41 218 0.0 0.0 0.00 0.07 0.01 88 1015.2
20260502112022 41 218 0.0 0.0 0.00 0.07 0.01 88 1015.2
20260502111522 41 218 0.0 0.0 0.00 0.07 0.01 88 1015.1
20260502111021 41 218 0.0 0.0 0.00 0.07 0.01 88 1015.1
20260502110520 41 218 0.0 0.0 0.00 0.07 0.01 88 1015.0
20260502110020 41 218 0.0 0.0 0.00 0.07 0.01 88 1014.8
20260502105520 41 218 0.0 0.0 0.00 0.07 0.01 88 1014.7
20260502105018 41 218 0.0 0.0 0.00 0.07 0.01 88 1014.7
20260502104519 41 218 0.0 0.0 0.00 0.07 0.01 88 1014.7
20260502104018 41 218 0.0 0.0 0.00 0.07 0.01 88 1014.7
20260502103518 41 218 0.0 0.0 0.00 0.07 0.01 88 1014.6
20260502103017 41 218 0.0 0.0 0.00 0.07 0.01 88 1014.6
20260502102517 40 218 0.0 0.0 0.00 0.07 0.01 87 1014.6
20260502102017 40 218 0.0 0.0 0.00 0.07 0.01 87 1014.6
20260502101533 40 218 0.0 0.0 0.00 0.07 0.01 87 1014.6
20260502101015 40 218 0.0 0.0 0.00 0.07 0.01 87 1014.6
20260502100520 40 218 0.0 0.0 0.00 0.07 0.01 87 1014.6
20260502091509 41 218 0.0 0.0 0.00 0.07 0.01 87 1014.1
20260502091007 41 218 0.0 0.0 0.00 0.07 0.01 87 1014.1
20260502090507 41 218 0.0 0.0 0.00 0.07 0.01 87 1014.1
20260502071058 42 218 0.0 0.0 0.00 0.07 0.01 87 1013.7
20260502070558 42 218 0.0 0.0 0.00 0.07 0.01 87 1013.7
20260502070112 42 218 0.0 0.0 0.00 0.07 0.01 87 1013.7
20260502065556 42 218 0.0 0.0 0.00 0.07 0.01 87 1013.7
20260502065057 42 218 0.0 0.0 0.00 0.07 0.01 87 1013.6
20260502064556 42 218 0.0 0.0 0.00 0.07 0.01 87 1013.6
20260502064056 42 218 0.0 3.0 0.00 0.07 0.01 87 1013.5
20260502063656 43 218 0.0 4.0 0.00 0.07 0.01 87 1013.6
20260502063057 43 249 0.0 4.0 0.00 0.07 0.01 87 1013.5
20260502062554 43 232 0.0 3.0 0.00 0.07 0.01 87 1013.6
20260502062052 43 232 0.0 2.0 0.00 0.07 0.01 87 1013.5
20260502061553 43 232 0.0 2.0 0.00 0.07 0.01 87 1013.6
20260502061051 43 232 0.0 4.0 0.00 0.07 0.01 87 1013.7
20260502060555 43 234 0.0 4.0 0.00 0.07 0.01 87 1013.7
20260502060051 43 236 0.0 4.0 0.00 0.07 0.01 87 1013.6
20260502055550 43 237 0.0 6.0 0.00 0.07 0.01 87 1013.6
20260502055050 44 237 2.0 6.0 0.00 0.07 0.01 87 1013.6
20260502054549 44 261 1.0 5.0 0.00 0.07 0.01 87 1013.7
20260502054048 44 271 1.0 5.0 0.00 0.07 0.01 87 1013.7
20260502053546 44 261 0.0 8.0 0.00 0.07 0.01 87 1013.6
20260502053054 44 346 2.0 11.0 0.00 0.07 0.01 87 1013.5
20260502052545 44 257 2.0 4.0 0.00 0.07 0.01 87 1013.4
20260502052045 44 286 0.0 2.0 0.01 0.07 0.01 87 1013.3
20260502051557 45 294 0.0 3.0 0.01 0.07 0.01 87 1013.2
20260502051044 45 300 0.0 3.0 0.01 0.07 0.01 87 1013.2
20260502050544 45 227 0.0 4.0 0.01 0.07 0.01 87 1013.3
20260502050044 45 227 1.0 4.0 0.01 0.07 0.01 87 1013.3
20260502045543 45 250 1.0 3.0 0.01 0.07 0.01 87 1013.3
20260502045048 45 238 0.0 4.0 0.01 0.07 0.01 87 1013.4
20260502044544 45 237 0.0 4.0 0.01 0.07 0.01 86 1013.5
20260502044043 45 222 2.0 4.0 0.01 0.07 0.01 86 1013.6
20260502043542 45 210 0.0 5.0 0.01 0.07 0.01 86 1013.6
20260502043041 45 229 0.0 5.0 0.01 0.07 0.01 86 1013.6
20260502042544 45 217 1.0 6.0 0.01 0.07 0.01 86 1013.6
20260502042040 45 197 0.0 6.0 0.00 0.06 0.00 86 1013.5
20260502041600 45 234 1.0 5.0 0.00 0.06 0.00 86 1013.4
20260502041040 45 189 2.0 5.0 0.00 0.06 0.00 86 1013.3
20260502040536 45 248 0.0 4.0 0.00 0.06 0.00 86 1013.3
20260502040039 46 248 1.0 4.0 0.00 0.06 0.00 86 1013.1
20260502035535 46 239 1.0 4.0 0.00 0.06 0.06 85 1013.2
20260502035034 46 251 0.0 4.0 0.00 0.06 0.06 85 1013.2
20260502034535 46 218 1.0 4.0 0.00 0.06 0.06 85 1013.2
20260502034035 46 206 0.0 5.0 0.00 0.06 0.06 85 1013.2
20260502033538 46 206 2.0 5.0 0.00 0.06 0.06 85 1013.1
20260502033045 46 237 1.0 7.0 0.00 0.06 0.06 85 1013.0
20260502032536 46 259 1.0 4.0 0.00 0.06 0.06 84 1013.0
20260502032033 46 252 2.0 5.0 0.00 0.06 0.06 84 1013.1
20260502031533 46 259 0.0 6.0 0.00 0.06 0.06 84 1013.2
20260502031034 46 261 1.0 4.0 0.00 0.06 0.06 83 1013.2
20260502030533 46 231 0.0 0.0 0.00 0.06 0.06 83 1013.2
20260502030033 46 231 0.0 0.0 0.01 0.06 0.06 83 1013.2
20260502025533 46 231 0.0 0.0 0.01 0.06 0.06 83 1013.2
20260502025033 46 231 0.0 0.0 0.01 0.06 0.06 83 1013.1
20260502024534 46 231 0.0 0.0 0.02 0.06 0.06 83 1013.2
20260502024032 46 231 0.0 0.0 0.02 0.06 0.06 82 1013.1
20260502023533 46 231 0.0 0.0 0.02 0.06 0.06 82 1013.1
20260502023032 46 231 0.0 0.0 0.02 0.06 0.06 82 1013.1
20260502022535 47 231 0.0 0.0 0.02 0.06 0.06 82 1013.2
20260502022034 47 231 0.0 0.0 0.02 0.06 0.06 82 1013.2
20260502021532 47 231 0.0 0.0 0.02 0.06 0.06 82 1013.2
20260502021031 47 231 0.0 0.0 0.02 0.06 0.06 82 1013.2
20260502020531 47 231 0.0 0.0 0.02 0.06 0.06 82 1013.2
20260502020031 47 231 0.0 0.0 0.01 0.05 0.05 81 1013.2
20260502015531 47 231 0.0 0.0 0.01 0.05 0.05 81 1013.2
20260502015031 47 231 0.0 0.0 0.01 0.05 0.05 81 1013.2
20260502014533 47 231 0.0 0.0 0.00 0.04 0.04 81 1013.1
20260502014030 47 231 0.0 0.0 0.01 0.04 0.04 81 1013.0
20260502013530 47 231 0.0 0.0 0.01 0.04 0.04 80 1013.0
20260502013031 47 231 0.0 0.0 0.01 0.04 0.04 80 1013.0
20260502012529 47 231 0.0 0.0 0.01 0.04 0.04 80 1013.0
20260502012029 47 231 0.0 0.0 0.01 0.04 0.04 80 1013.1
20260502011529 47 231 0.0 0.0 0.01 0.04 0.04 79 1013.1
20260502011029 47 231 0.0 0.0 0.01 0.04 0.04 79 1013.0
20260502010528 47 231 0.0 0.0 0.01 0.04 0.04 79 1013.0
20260502010028 47 231 0.0 0.0 0.01 0.04 0.04 79 1013.0
20260502005528 47 231 0.0 0.0 0.01 0.04 0.04 78 1013.0
20260502005029 47 231 0.0 0.0 0.01 0.04 0.04 78 1013.0
20260502004528 48 231 0.0 0.0 0.01 0.03 0.03 78 1013.0
20260502004029 48 231 0.0 0.0 0.01 0.03 0.03 77 1013.0
20260502003527 48 231 0.0 0.0 0.01 0.03 0.03 77 1012.9
20260502003028 48 231 0.0 0.0 0.01 0.03 0.03 77 1012.9
20260502002532 48 231 0.0 0.0 0.01 0.03 0.03 76 1012.9
20260502002027 48 231 0.0 0.0 0.01 0.03 0.03 76 1012.9
20260502001528 48 231 0.0 0.0 0.02 0.03 0.03 75 1012.8
20260502001028 49 231 0.0 0.0 0.02 0.03 0.03 75 1012.8
20260502000527 49 231 0.0 0.0 0.03 0.03 0.03 74 1012.8
20260502000027 49 231 0.0 0.0 0.03 0.03 0.03 73 1012.8
20260501235527 49 231 0.0 0.0 0.03 0.03 0.03 72 1012.7
20260501235026 49 231 0.0 0.0 0.02 0.02 0.02 71 1012.8
20260501234526 50 231 0.0 0.0 0.02 0.02 0.02 71 1012.7
20260501234026 50 231 0.0 0.0 0.02 0.02 0.02 70 1012.7
20260501233526 50 231 0.0 0.0 0.02 0.02 0.02 70 1012.6
20260501233026 50 231 0.0 0.0 0.02 0.02 0.02 69 1012.7
20260501232527 50 231 0.0 0.0 0.02 0.02 0.02 69 1012.7
20260501232028 51 231 0.0 0.0 0.02 0.02 0.02 69 1012.6
20260501231536 51 232 0.0 0.0 0.01 0.01 0.01 68 1012.6
20260501231026 51 232 0.0 0.0 0.01 0.01 0.01 67 1012.7
20260501230528 51 232 0.0 3.0 0.00 0.00 0.00 67 1012.6
20260501230025 51 232 1.0 3.0 0.00 0.00 0.00 66 1012.7
20260501225525 52 263 0.0 5.0 0.00 0.00 0.00 66 1012.6
20260501225028 52 269 2.0 12.0 0.00 0.00 0.00 64 1012.6
20260501224525 52 292 5.0 12.0 0.00 0.00 0.00 63 1012.4
20260501224025 52 242 3.0 9.0 0.00 0.00 0.00 61 1012.4
20260501223524 53 242 5.0 10.0 0.00 0.00 0.00 60 1012.3
20260501223035 53 244 2.0 10.0 0.00 0.00 0.00 59 1012.2
20260501222523 53 242 2.0 8.0 0.00 0.00 0.00 59 1012.1
20260501222023 53 277 1.0 8.0 0.00 0.00 0.00 58 1012.1